EW1931 Weather Reports


Display with metric or nautical units.
time (UTC)temp
F
wind
direction
speed
MPH
gust
MPH
rain 1hr
in
rain 24hr
in
rain mn
in
humidity
%
barometer
mb
20220525214515 70 267 23.0 30.0 0.00 0.01 0.00 30 1001.5
20220525213026 69 257 24.0 36.0 0.00 0.01 0.00 32 1001.4
20220525210012 70 236 27.0 37.0 0.00 0.01 0.00 30 1001.3
20220525204515 69 277 19.0 32.0 0.00 0.01 0.00 33 1001.4
20220525203009 70 272 24.0 32.0 0.00 0.01 0.00 30 1001.3
20220525200006 67 261 18.0 25.0 0.00 0.01 0.00 32 1001.8
20220525194504 67 232 15.0 23.0 0.00 0.01 0.00 32 1002.0
20220525193003 67 240 17.0 22.0 0.00 0.01 0.00 31 1002.0
20220525190059 66 244 17.0 27.0 0.00 0.01 0.00 32 1002.3
20220525184554 66 249 18.0 25.0 0.00 0.01 0.00 34 1002.6
20220525183053 64 264 11.0 25.0 0.00 0.01 0.00 35 1002.7
20220525180119 64 234 12.0 22.0 0.00 0.01 0.00 35 1002.8
20220525174553 65 238 17.0 23.0 0.00 0.01 0.00 33 1002.9
20220525173049 63 277 17.0 24.0 0.00 0.01 0.00 36 1003.0
20220525170047 62 261 13.0 21.0 0.00 0.01 0.00 35 1003.4
20220525164545 63 237 12.0 17.0 0.00 0.01 0.00 36 1003.1
20220525163100 61 232 12.0 17.0 0.00 0.01 0.00 37 1003.3
20220525160038 60 257 9.0 16.0 0.00 0.01 0.00 40 1003.6
20220525154535 58 221 7.0 15.0 0.00 0.01 0.00 42 1003.8
20220525153031 57 240 10.0 15.0 0.00 0.01 0.00 44 1003.9
20220525150026 53 227 7.0 11.0 0.00 0.01 0.00 51 1004.2
20220525144521 52 220 10.0 12.0 0.00 0.01 0.00 52 1004.1
20220525143019 51 229 8.0 11.0 0.00 0.01 0.00 53 1004.2
20220525140020 49 222 9.0 11.0 0.00 0.01 0.00 56 1004.3
20220525134520 49 235 9.0 11.0 0.00 0.01 0.00 54 1004.4
20220525133029 49 226 10.0 13.0 0.00 0.01 0.00 55 1004.4
20220525130018 45 228 7.0 9.0 0.00 0.01 0.00 63 1004.3
20220525124524 46 221 7.0 10.0 0.00 0.01 0.00 60 1004.3
20220525123017 45 236 7.0 8.0 0.00 0.01 0.00 60 1004.4
20220525120016 45 245 5.0 7.0 0.00 0.01 0.00 62 1004.3
20220525114519 44 246 7.0 8.0 0.00 0.01 0.00 61 1004.4
20220525113015 45 249 7.0 9.0 0.00 0.01 0.00 59 1004.4
20220525110018 45 252 9.0 11.0 0.00 0.01 0.00 61 1004.4
20220525104520 44 234 7.0 9.0 0.00 0.01 0.00 63 1004.2
20220525103018 43 232 7.0 9.0 0.00 0.01 0.00 65 1004.5
20220525100015 43 225 6.0 8.0 0.00 0.01 0.00 63 1004.3
20220525094515 44 219 8.0 12.0 0.00 0.01 0.00 62 1004.4
20220525093023 43 209 9.0 12.0 0.00 0.01 0.00 64 1004.4
20220525090025 43 239 7.0 9.0 0.00 0.01 0.00 65 1004.4
20220525084517 42 221 8.0 9.0 0.00 0.01 0.00 65 1004.5
20220525083009 44 224 7.0 10.0 0.00 0.01 0.00 63 1004.4
20220525080002 48 300 9.0 12.0 0.00 0.01 0.00 57 1004.4
20220525074604 50 306 10.0 13.0 0.00 0.01 0.00 55 1004.4
20220525073059 50 298 10.0 15.0 0.00 0.01 0.00 55 1004.2
20220525070055 49 309 8.0 11.0 0.00 0.01 0.00 56 1004.4
20220525064554 49 300 8.0 11.0 0.00 0.01 0.00 56 1004.4
20220525063050 50 302 7.0 9.0 0.00 0.01 0.00 52 1004.6
20220525060047 51 294 8.0 12.0 0.00 0.01 0.00 51 1004.8
20220525054546 50 276 7.0 8.0 0.00 0.01 0.01 52 1004.8
20220525053045 50 276 6.0 8.0 0.00 0.01 0.01 53 1004.9
20220525050054 50 286 7.0 9.0 0.00 0.01 0.01 55 1004.8
20220525044544 52 242 7.0 13.0 0.00 0.01 0.01 53 1004.9
20220525043044 55 150 2.0 3.0 0.00 0.01 0.01 48 1004.8
20220525040104 56 135 1.0 3.0 0.00 0.01 0.01 46 1004.5
20220525034547 56 135 1.0 4.0 0.00 0.01 0.01 49 1004.4
20220525033055 55 59 2.0 4.0 0.00 0.01 0.01 45 1004.4
20220525030050 58 340 1.0 3.0 0.00 0.01 0.01 44 1004.4
20220525024543 60 339 2.0 5.0 0.00 0.01 0.01 42 1004.5
20220525023041 60 324 6.0 8.0 0.00 0.01 0.01 41 1004.4
20220525020044 64 340 8.0 13.0 0.00 0.01 0.01 40 1004.5
20220525020013 64 321 7.0 12.0 0.00 0.01 0.01 39 1004.5
20220525014543 64 14 1.0 5.0 0.00 0.01 0.01 36 1004.3
20220525013052 63 5 3.0 6.0 0.00 0.01 0.01 37 1004.0
20220525010047 64 52 4.0 6.0 0.00 0.01 0.01 31 1004.0
20220525004545 64 332 7.0 11.0 0.00 0.01 0.01 31 1004.1
20220525003038 64 15 5.0 16.0 0.00 0.01 0.01 30 1004.1
20220525000041 65 270 18.0 32.0 0.00 0.01 0.01 29 1004.3
20220524234546 65 278 8.0 15.0 0.00 0.01 0.01 28 1004.1
20220524233041 66 137 8.0 12.0 0.00 0.01 0.01 34 1004.0
20220524230045 68 222 5.0 9.0 0.00 0.01 0.01 27 1004.2
20220524224539 68 162 2.0 8.0 0.00 0.01 0.01 27 1004.1
20220524223038 67 188 10.0 16.0 0.00 0.01 0.01 29 1004.1
20220524220107 64 34 2.0 5.0 0.01 0.01 0.01 34 1004.5